Tracking 30990 objects as of 8-Jul-2025
HD Live streaming from Space Station
objects crossing your sky now

SL-8 DEB

Track SL-8 DEB now!
10-day predictions


NORAD ID: 21959
Int'l Code: 1991-009CH
Perigee: 1,502.0 km
Apogee: 1,706.8 km
Inclination: 74.0 °
Period: 118.1 minutes
Semi major axis: 7975 km
RCS: 0.0331 m2 (small)
Launch date: February 12, 1991
Source: Commonwealth of Independent States (former USSR) (CIS)
Launch site: PLESETSK MISSILE AND SPACE COMPLEX (PKMTR)

Note: This is SATELLITE DEBRIS
Your satellite tracking list
Your tracking list is empty




NASA's NSSDC Master Catalog

Two Line Element Set (TLE):
1 21959U 91009CH  25187.61751488 -.00000015  00000-0  35762-5 0  9993
2 21959  73.9675 246.8622 0128417 220.1716 265.4190 12.18913555526704
Source of the keplerian elements: AFSPC